Terminal Aerodrome Forecast
Issued by NWS Jackson, KY

Home | Current Version | Previous Version | Text Only | Print | Product List | Glossary On
Versions: 1 2 3 4 5 6 7 8 9 10 11 12 13 14 15 16 17 18 19 20 21 22 23 24 25 26 27
687
FTUS43 KJKL 101137 AAA
TAFJKL
TAF AMD
KJKL 101137Z 1012/1112 VRB03KT 3SM -SN BKN017 BKN023 OVC050
     FM101400 27005KT P6SM VCSH BKN020
     FM102300 27009KT P6SM BKN025=

USA.gov is the U.S. government's official web portal to all federal, state and local government web resources and services.